Location: Cutler
(25.6150°N, 80.3110°W)
Time: 07:08:40
(UTC-05:00)

Amateur Radio Satellites - All Passes

Search period start: 18 November 2017 06:38
Search period end: 19 November 2017 06:38
Location: Cutler, 25.6150°N, 80.3110°W

Satellite Date Start Highest point End Downlink Frequencies (MHz)
Time Altitude Azimuth
nSIGHT-1 18 Nov 06:46:01 06:48:36 23° 233° (SW) 06:51:11 .
KAITUO 1B 18 Nov 06:46:12 06:49:53 54° 283° (WNW) 06:53:34 145.475/437.950
YUBILEINY 18 Nov 06:48:32 06:56:54 51° 278° (W) 07:05:23 435.215
FO-29 18 Nov 06:49:51 06:50:36 10° 61° (ENE) 06:51:21 435.910
XW-2D 18 Nov 06:52:11 06:55:30 29° 285° (WNW) 06:58:49 145.860 - 145.880
SEEDS 18 Nov 06:55:04 06:58:25 23° 97° (E) 07:01:46 437.485
XW-2B 18 Nov 07:07:21 07:10:07 20° 287° (WNW) 07:12:54 145.730 - 145.750
HO-68 18 Nov 07:09:09 07:16:15 62° 103° (ESE) 07:23:18 435.675
SO-50 18 Nov 07:10:47 07:12:48 13° 55° (NE) 07:14:49 436.795
AAUSAT CUBESAT 2 18 Nov 07:13:44 07:16:02 14° 96° (E) 07:18:19 437.432
ISS 18 Nov 07:19:45 07:21:08 12° 235° (SW) 07:22:32 437.550
ZACube-1 18 Nov 07:39:32 07:42:24 18° 97° (E) 07:45:18 437.345
NUDT-PHONESAT 18 Nov 07:39:38 07:40:31 11° 289° (WNW) 07:41:23 437.300
UWE-3 18 Nov 07:40:16 07:44:10 41° 99° (E) 07:48:05 435.000/436.395/437.385
RS-15 18 Nov 07:46:14 07:51:02 14° 260° (W) 07:55:48 29.354- 29.394
CUTE 1.7 + AOD 2 18 Nov 07:52:45 07:56:34 32° 285° (WNW) 08:00:21 437.475
STRAND 1 18 Nov 07:56:48 08:01:17 31° 261° (W) 08:05:49 437.568
CUTE-I 18 Nov 08:03:05 08:05:12 12° 293° (WNW) 08:07:20 437.470
CUBEBUG 2 18 Nov 08:12:33 08:16:16 33° 285° (WNW) 08:19:59 437.445
XW-2A 18 Nov 08:20:44 08:23:54 40° 284° (WNW) 08:27:04 145.665 - 145.685
FO-29 18 Nov 08:28:19 08:34:22 90° 264° (W) 08:41:18 435.910
SEEDS 18 Nov 08:30:52 08:33:52 19° 288° (WNW) 08:36:52 437.485
AO-73 18 Nov 08:31:36 08:35:45 83° 102° (ESE) 08:39:55 145.935
AAUSAT CUBESAT 2 18 Nov 08:47:49 08:51:24 28° 286° (WNW) 08:54:59 437.432
SO-50 18 Nov 08:48:54 08:53:27 51° 247° (WSW) 08:58:02 436.795
Oscar 11 18 Nov 08:52:00 08:56:20 86° 285° (WNW) 09:00:40 .
HO-68 18 Nov 08:58:45 09:03:18 18° 295° (WNW) 09:07:54 435.675
ZACube-1 18 Nov 09:15:20 09:18:32 22° 287° (WNW) 09:21:45 437.345
FALCONSAT 3 18 Nov 09:30:46 09:34:09 35° 148° (SSE) 09:37:33 435.103
UNISAT 6 18 Nov 09:35:25 09:40:05 90° 349° (N) 09:44:40 437.425
TIGRISAT 18 Nov 09:40:44 09:45:24 86° 256° (WSW) 09:50:00 435.000
DELFI C3 18 Nov 09:50:14 09:54:14 90° 62° (ENE) 09:58:11 145.870
PRISM 18 Nov 10:02:37 10:06:38 58° 76° (ENE) 10:10:40 437.425
Max Valier Satellite 18 Nov 10:04:42 10:08:21 84° 282° (WNW) 10:12:01 145.860
EO-88 18 Nov 10:11:05 10:14:43 77° 101° (E) 10:18:21 145.990 - 145.960
AIST 2D 18 Nov 10:31:45 10:34:45 28° 75° (ENE) 10:37:45 435.315
PCSat 18 Nov 10:38:06 10:43:17 45° 64° (ENE) 10:48:25 145.827
QB50P2 18 Nov 10:44:33 10:47:11 16° 71° (ENE) 10:49:50 145.880/145.840
LO-87 18 Nov 10:47:22 10:49:54 18° 97° (E) 10:52:24 145.935 - 145.965
ESTCUBE 1 18 Nov 11:09:26 11:13:23 29° 98° (E) 11:17:19 437.505/2401.250
FALCONSAT 3 18 Nov 11:09:43 11:13:12 40° 340° (NNW) 11:16:42 435.103
DUCHIFAT 1 18 Nov 11:38:01 11:42:08 53° 76° (ENE) 11:46:14 145.980
EO-79 18 Nov 11:40:57 11:45:13 82° 76° (ENE) 11:49:28 145.935-145.965
NANOSAT C BR1 18 Nov 11:46:29 11:50:44 84° 78° (ENE) 11:54:58 145.865
POLYITAN 1 18 Nov 11:55:23 11:59:36 63° 259° (W) 12:03:48 437.675
QB50P2 18 Nov 12:19:04 12:22:41 27° 262° (W) 12:26:19 145.880/145.840
LO-87 18 Nov 12:21:03 12:23:04 15° 287° (WNW) 12:25:04 145.935 - 145.965
BEESAT 3 18 Nov 12:22:05 12:24:12 14° 57° (ENE) 12:26:19 437.485
PCSat 18 Nov 12:23:04 12:26:12 16° 255° (WSW) 12:29:20 145.827
BUGSAT 1 18 Nov 12:43:30 12:47:43 76° 76° (ENE) 12:51:55 437.445
ESTCUBE 1 18 Nov 12:46:57 12:49:52 17° 289° (WNW) 12:52:48 437.505/2401.250
FALCONSAT 3 18 Nov 12:50:11 12:52:50 18° 354° (N) 12:55:29 435.103
Gurwin Techsat 1B 18 Nov 12:58:45 13:03:33 36° 73° (ENE) 13:08:22 435.225
Oscar 19 18 Nov 12:59:19 13:04:17 54° 75° (ENE) 13:09:16 437.125/150
SPROUT 18 Nov 13:07:13 13:11:12 41° 285° (WNW) 13:15:11 437.525
O/OREOS (USA 219) 18 Nov 13:10:11 13:14:03 27° 102° (ESE) 13:17:57 437.305
JUGNU 18 Nov 13:19:29 13:22:11 13° 159° (SSE) 13:24:54 437.505
VELOX 1 18 Nov 13:20:35 13:24:54 51° 284° (WNW) 13:29:12 145.980
BEESAT 2 18 Nov 13:24:50 13:27:51 20° 59° (ENE) 13:30:49 435.950
UKube-1 18 Nov 13:30:23 13:33:28 19° 97° (E) 13:36:33 .
50 SAT 18 Nov 13:30:55 13:33:57 38° 100° (E) 13:36:57 437.505
BEESAT 3 18 Nov 13:58:22 14:01:42 28° 249° (WSW) 14:05:01 437.485
AO-85 18 Nov 14:05:54 14:10:10 30° 61° (ENE) 14:14:38 145.980
DX 1 18 Nov 14:16:18 14:20:35 57° 284° (WNW) 14:24:51 434.975-435.025
AO-7 18 Nov 14:16:19 14:23:39 37° 67° (ENE) 14:31:00 .
M-CUBED/EXP-1 PRIME 18 Nov 14:20:45 14:24:03 70° 256° (WSW) 14:27:33 437.505
FALCONSAT 3 18 Nov 14:29:50 14:32:40 20° 10° (N) 14:35:31 435.103
Gurwin Techsat 1B 18 Nov 14:39:49 14:43:28 19° 263° (W) 14:47:08 435.225
Oscar 19 18 Nov 14:42:22 14:43:46 11° 265° (W) 14:45:09 437.125/150
ITAMSAT 1 18 Nov 14:45:18 14:49:47 30° 72° (ENE) 14:54:15 435.822/435.867
BEESAT 18 Nov 14:47:51 14:51:08 19° 97° (E) 14:54:24 436.000
O/OREOS (USA 219) 18 Nov 14:50:11 14:53:23 18° 294° (WNW) 14:56:34 437.305
ITUPSAT 1 18 Nov 14:55:00 14:58:40 22° 98° (E) 15:02:19 437.325
BEESAT 2 18 Nov 15:02:27 15:05:22 20° 251° (WSW) 15:08:16 435.950
JUGNU 18 Nov 15:05:44 15:10:47 30° 166° (SSE) 15:15:47 437.505
UKube-1 18 Nov 15:05:54 15:09:19 23° 288° (WNW) 15:12:45 .
NO-84 18 Nov 15:19:38 15:23:07 89° 298° (WNW) 15:26:55 435.350 FM
MOZHAYETS 4 18 Nov 15:36:39 15:41:13 77° 282° (WNW) 15:45:46
CUBESAT XI-V 18 Nov 15:40:44 15:44:14 21° 97° (E) 15:47:42 437.345
AO-85 18 Nov 15:46:29 15:50:25 23° 250° (WSW) 15:54:30 145.980
FALCONSAT 3 18 Nov 16:08:31 16:12:11 58° 24° (NNE) 16:15:49 435.103
AO-7 18 Nov 16:08:45 16:16:11 37° 259° (W) 16:23:40 .
BEESAT 18 Nov 16:24:43 16:28:48 29° 287° (WNW) 16:32:53 436.000
ITAMSAT 1 18 Nov 16:25:05 16:29:06 22° 262° (W) 16:33:09 435.822/435.867
ITUPSAT 1 18 Nov 16:32:29 16:36:20 25° 288° (WNW) 16:40:09 437.325
DOVE 4 18 Nov 16:39:00 16:43:44 67° 77° (ENE) 16:48:46 437.250
SRMSAT 18 Nov 16:45:05 16:48:55 18° 160° (SSE) 16:52:45 437.500
JUGNU 18 Nov 16:53:54 16:59:28 46° 175° (S) 17:05:02 437.505
YUBILEINY 18 Nov 17:08:37 17:17:16 57° 82° (E) 17:25:52 435.215
CUBESAT XI-V 18 Nov 17:17:35 17:21:27 26° 287° (WNW) 17:25:19 437.345
KAITUO 1B 18 Nov 17:18:48 17:21:19 18° 73° (ENE) 17:23:50 145.475/437.950
XW-2D 18 Nov 17:24:49 17:28:13 34° 75° (ENE) 17:31:36 145.860 - 145.880
RS-15 18 Nov 17:29:49 17:39:36 29° 104° (ESE) 17:49:27 29.354- 29.394
HO-68 18 Nov 17:30:46 17:35:36 20° 65° (ENE) 17:40:26 435.675
CUTE-I 18 Nov 17:34:07 17:39:06 41° 73° (ENE) 17:44:07 437.470
XW-2B 18 Nov 17:39:15 17:42:54 54° 76° (ENE) 17:46:32 145.730 - 145.750
FALCONSAT 3 18 Nov 17:48:10 17:51:05 22° 215° (SW) 17:54:00 435.103
KKS-1 18 Nov 17:50:57 17:55:17 51° 285° (WNW) 17:59:34 437.445
LilacSat-2 18 Nov 18:02:46 18:06:26 55° 260° (W) 18:10:07 437.200
XW-2C 18 Nov 18:04:37 18:08:16 57° 260° (W) 18:11:56 145.795 - 145.815
NUDT-PHONESAT 18 Nov 18:07:31 18:11:09 84° 259° (WSW) 18:14:48 437.300
XW-2F 18 Nov 18:18:24 18:21:51 37° 261° (W) 18:25:20 145.980 - 146.000
STARS 18 Nov 18:23:50 18:28:07 57° 285° (WNW) 18:32:24 437.465
UWE-3 18 Nov 18:30:35 18:32:51 14° 71° (ENE) 18:35:04 435.000/436.395/437.385
SRMSAT 18 Nov 18:32:20 18:37:41 35° 168° (SSE) 18:43:04 437.500
CUTE 1.7 + AOD 2 18 Nov 18:36:27 18:40:33 57° 77° (ENE) 18:44:40 437.475
STRAND 1 18 Nov 18:38:07 18:40:43 14° 95° (E) 18:43:19 437.568
JUGNU 18 Nov 18:42:40 18:48:15 47° 185° (S) 18:53:49 437.505
XW-2A 18 Nov 18:44:58 18:46:41 14° 73° (ENE) 18:48:26 145.665 - 145.685
KAITUO 1B 18 Nov 18:52:41 18:55:06 17° 263° (W) 18:57:32 145.475/437.950
CUBEBUG 2 18 Nov 19:01:06 19:05:45 67° 77° (ENE) 19:10:19 437.445
YUBILEINY 18 Nov 19:07:03 19:13:19 22° 275° (W) 19:19:36 435.215
SEEDS 18 Nov 19:12:46 19:16:54 82° 259° (WSW) 19:21:04 437.485
HO-68 18 Nov 19:15:40 19:22:42 59° 257° (WSW) 19:29:47 435.675
CUTE-I 18 Nov 19:15:53 19:19:11 17° 264° (W) 19:22:30 437.470
AO-73 18 Nov 19:19:23 19:22:47 22° 73° (ENE) 19:26:08 145.935
AAUSAT CUBESAT 2 18 Nov 19:28:45 19:32:46 58° 77° (ENE) 19:36:49 437.432
Oscar 11 18 Nov 19:39:04 19:42:33 25° 73° (ENE) 19:46:02 .
RS-15 18 Nov 19:39:09 19:51:12 63° 298° (WNW) 20:03:25 29.354- 29.394
FO-29 18 Nov 19:47:54 19:53:49 24° 94° (E) 19:59:24 435.910
ZACube-1 18 Nov 20:01:27 20:05:53 86° 258° (WSW) 20:10:14 437.345
UWE-3 18 Nov 20:04:43 20:08:55 36° 261° (W) 20:13:03 435.000/436.395/437.385
nSIGHT-1 18 Nov 20:05:17 20:07:45 21° 126° (SE) 20:10:16 .
STRAND 1 18 Nov 20:15:08 20:19:58 44° 286° (WNW) 20:24:46 437.568
XW-2A 18 Nov 20:16:55 20:19:10 17° 263° (W) 20:21:25 145.665 - 145.685
SRMSAT 18 Nov 20:20:52 20:26:36 49° 177° (S) 20:32:21 437.500
DELFI C3 18 Nov 20:28:31 20:30:52 15° 72° (ENE) 20:33:14 145.870
JUGNU 18 Nov 20:31:52 20:36:56 31° 194° (SSW) 20:42:01 437.505
Max Valier Satellite 18 Nov 20:37:24 20:38:47 12° 72° (ENE) 20:40:10 145.860
ISS 18 Nov 20:39:13 20:42:23 46° 128° (SE) 20:45:31 437.550
AO-73 18 Nov 20:55:36 20:58:50 20° 263° (W) 21:02:02 145.935
Oscar 11 18 Nov 21:15:40 21:18:33 18° 264° (W) 21:21:28 .
SO-50 18 Nov 21:15:54 21:19:23 23° 110° (ESE) 21:22:52 436.795
FO-29 18 Nov 21:31:28 21:38:57 52° 288° (WNW) 21:45:56 435.910
UNISAT 6 18 Nov 21:35:39 21:39:32 34° 99° (E) 21:43:23 437.425
TIGRISAT 18 Nov 21:40:47 21:44:41 35° 99° (E) 21:48:34 435.000
nSIGHT-1 18 Nov 21:41:33 21:43:54 18° 318° (NW) 21:46:14 .
PRISM 18 Nov 21:53:04 21:55:37 16° 96° (E) 21:58:09 437.425
RS-15 18 Nov 22:00:54 22:06:31 14° 321° (NW) 22:12:09 29.354- 29.394
DELFI C3 18 Nov 22:02:10 22:05:20 23° 263° (W) 22:08:32 145.870
Max Valier Satellite 18 Nov 22:09:12 22:12:17 25° 262° (W) 22:15:22 145.860
SRMSAT 18 Nov 22:09:54 22:15:33 44° 188° (S) 22:21:13 437.500
EO-88 18 Nov 22:13:58 22:17:13 32° 261° (W) 22:20:30 145.990 - 145.960
ISS 18 Nov 22:18:14 22:19:00 11° 321° (NW) 22:19:46 437.550
JUGNU 18 Nov 22:22:35 22:25:31 14° 201° (SSW) 22:28:29 437.505
LO-87 18 Nov 22:47:03 22:50:35 53° 77° (ENE) 22:54:07 145.935 - 145.965
SO-50 18 Nov 22:56:06 22:59:39 23° 302° (WNW) 23:03:14 436.795
UNISAT 6 18 Nov 23:14:02 23:15:52 13° 290° (WNW) 23:17:40 437.425
TIGRISAT 18 Nov 23:19:22 23:20:59 12° 290° (WNW) 23:22:36 435.000
PRISM 18 Nov 23:27:20 23:30:47 26° 287° (WNW) 23:34:12 437.425
O/OREOS (USA 219) 18 Nov 23:29:25 23:31:56 15° 65° (ENE) 23:34:27 437.305
PCSat 18 Nov 23:29:43 23:33:26 19° 105° (ESE) 23:37:09 145.827
DUCHIFAT 1 18 Nov 23:31:09 23:33:44 16° 96° (E) 23:36:18 145.980
EO-79 18 Nov 23:34:13 23:37:39 24° 98° (E) 23:41:04 145.935-145.965
ESTCUBE 1 18 Nov 23:36:38 23:40:56 49° 260° (W) 23:45:16 437.505/2401.250
AIST 2D 18 Nov 23:36:43 23:40:13 65° 282° (WNW) 23:43:42 435.315
NO-84 18 Nov 23:36:45 23:40:03 21° 45° (NE) 23:43:16 435.350 FM
NANOSAT C BR1 18 Nov 23:39:21 23:42:47 25° 98° (E) 23:46:11 145.865
POLYITAN 1 18 Nov 23:48:19 23:52:13 38° 99° (E) 23:56:05 437.675
SPROUT 18 Nov 23:51:42 23:55:48 46° 76° (ENE) 23:59:55 437.525
SRMSAT 18 Nov 23:59:32 00:04:25 26° 196° (SSW) 00:09:18 437.500
VELOX 1 19 Nov 00:09:13 00:13:26 46° 75° (ENE) 00:17:41 145.980
QB50P2 19 Nov 00:11:08 00:15:20 88° 282° (WNW) 00:19:32 145.880/145.840
BUGSAT 1 19 Nov 00:34:11 00:37:08 20° 97° (E) 00:40:04 437.445
DX 1 19 Nov 01:03:26 01:07:29 40° 74° (ENE) 01:11:35 434.975-435.025
DUCHIFAT 1 19 Nov 01:05:52 01:09:17 25° 287° (WNW) 01:12:42 145.980
O/OREOS (USA 219) 19 Nov 01:07:18 01:11:21 33° 257° (WSW) 01:15:22 437.305
EO-79 19 Nov 01:10:26 01:13:08 17° 288° (WNW) 01:15:51 145.935-145.965
PCSat 19 Nov 01:11:28 01:16:27 38° 297° (WNW) 01:21:28 145.827
NO-84 19 Nov 01:13:42 01:17:23 30° 238° (WSW) 01:20:55 435.350 FM
NANOSAT C BR1 19 Nov 01:15:32 01:18:13 17° 288° (WNW) 01:20:53 145.865
Oscar 19 19 Nov 01:19:14 01:24:02 38° 100° (E) 01:28:49 437.125/150
50 SAT 19 Nov 01:21:29 01:24:42 88° 259° (W) 01:27:56 437.505
Gurwin Techsat 1B 19 Nov 01:23:25 01:27:58 29° 98° (E) 01:32:30 435.225
POLYITAN 1 19 Nov 01:26:23 01:27:34 11° 290° (WNW) 01:28:45 437.675
UKube-1 19 Nov 01:50:55 01:55:13 83° 256° (WSW) 01:59:33 .
SRMSAT 19 Nov 01:52:01 01:53:11 11° 202° (SSW) 01:54:21 437.500
ITUPSAT 1 19 Nov 01:56:28 01:57:22 10° 68° (ENE) 01:58:16 437.325
BEESAT 3 19 Nov 02:03:18 02:05:48 16° 109° (ESE) 02:08:20 437.485
M-CUBED/EXP-1 PRIME 19 Nov 02:06:32 02:09:54 20° 101° (E) 02:13:14 437.505
BUGSAT 1 19 Nov 02:09:27 02:12:18 19° 288° (WNW) 02:15:08 437.445
AO-7 19 Nov 02:28:22 02:33:54 19° 98° (E) 02:39:24 .
MOZHAYETS 4 19 Nov 02:30:19 02:34:31 37° 74° (ENE) 02:38:42
DX 1 19 Nov 02:42:31 02:43:43 11° 265° (W) 02:44:55 434.975-435.025
RS-15 19 Nov 02:43:26 02:49:34 15° 41° (NE) 02:55:29 29.354- 29.394
Oscar 19 19 Nov 02:59:41 03:02:59 17° 290° (WNW) 03:06:16 437.125/150
Gurwin Techsat 1B 19 Nov 03:03:30 03:07:41 24° 289° (WNW) 03:11:52 435.225
ITAMSAT 1 19 Nov 03:06:50 03:10:41 21° 97° (E) 03:14:30 435.822/435.867
BEESAT 2 19 Nov 03:07:35 03:10:50 25° 110° (ESE) 03:14:08 435.950
BEESAT 19 Nov 03:21:58 03:26:43 66° 258° (WSW) 03:31:28 436.000
ITUPSAT 1 19 Nov 03:29:58 03:34:39 54° 259° (W) 03:39:21 437.325
BEESAT 3 19 Nov 03:39:48 03:43:05 24° 300° (WNW) 03:46:22 437.485
M-CUBED/EXP-1 PRIME 19 Nov 03:40:09 03:44:06 29° 291° (WNW) 03:48:06 437.505
MOZHAYETS 4 19 Nov 04:09:28 04:11:40 13° 265° (W) 04:13:51
CUBESAT XI-V 19 Nov 04:11:36 04:16:08 68° 258° (WSW) 04:20:43 437.345
AO-85 19 Nov 04:12:44 04:16:30 56° 113° (ESE) 04:20:19 145.980
AO-7 19 Nov 04:18:40 04:26:54 66° 289° (WNW) 04:35:09 .
KKS-1 19 Nov 04:40:23 04:44:42 49° 75° (ENE) 04:49:01 437.445
ITAMSAT 1 19 Nov 04:45:30 04:50:03 31° 288° (WNW) 04:54:33 435.822/435.867
BEESAT 2 19 Nov 04:45:48 04:48:27 17° 302° (WNW) 04:51:09 435.950
DOVE 4 19 Nov 04:46:35 04:51:17 37° 98° (E) 04:55:45 437.250
ISS 19 Nov 04:50:35 04:52:32 15° 41° (NE) 04:54:30 437.550
RS-15 19 Nov 04:52:42 05:04:21 71° 63° (ENE) 05:15:20 29.354- 29.394
STARS 19 Nov 05:11:55 05:16:04 41° 75° (ENE) 05:20:14 437.465
XW-2B 19 Nov 05:21:51 05:22:55 11° 95° (E) 05:23:59 145.730 - 145.750
LilacSat-2 19 Nov 05:44:03 05:47:20 27° 98° (E) 05:50:38 437.200
XW-2C 19 Nov 05:45:16 05:48:28 25° 98° (E) 05:51:40 145.795 - 145.815
NUDT-PHONESAT 19 Nov 05:46:26 05:48:48 16° 97° (E) 05:51:10 437.300
nSIGHT-1 19 Nov 05:49:45 05:52:55 68° 229° (SW) 05:56:03 .
XW-2F 19 Nov 05:58:02 06:01:32 35° 99° (E) 06:05:03 145.980 - 146.000
YUBILEINY 19 Nov 05:58:37 06:07:20 83° 93° (E) 06:16:08 435.215
CUTE-I 19 Nov 05:59:37 06:04:25 33° 99° (E) 06:09:12 437.470
DOVE 4 19 Nov 06:25:18 06:28:32 17° 291° (WNW) 06:31:40 437.250
ISS 19 Nov 06:26:10 06:29:01 28° 233° (SW) 06:31:51 437.550
KAITUO 1B 19 Nov 06:29:58 06:33:45 83° 102° (ESE) 06:37:31 145.475/437.950
CUTE 1.7 + AOD 2 19 Nov 06:30:06 06:33:12 19° 97° (E) 06:36:16 437.475
